logo tempoitalia

Diretta Meteo Chios, Grecialunedì 31 agosto ore 07:50

Mappa
Sereno 24 °C Sereno 24 Ore: T.min 23 T.max 30
Ponente Nord Km/h 11.1 Punto di rugiada: 20 °C Umidità: 78% Visibilità: 10 Km
Il sole sorge alle: 06:44 Il sole tramonta alle: 19:47
31 Agosto 2026 07:50 tempo osservato: Sereno Sereno 24 78 1014 vento: Nord N 11.1
31 Agosto 2026 06:50 tempo osservato: Sereno Sereno 24 78 1014 vento: Nord N 9.3
31 Agosto 2026 05:50 tempo osservato: Sereno Sereno 24 73 1014 vento: Nord N 9.3
31 Agosto 2026 03:50 tempo osservato: Sereno Sereno 25 65 1014 vento: Nord N/NO 13
31 Agosto 2026 02:50 tempo osservato: Sereno Sereno 25 57 1014 vento: Nord N 9.3
31 Agosto 2026 01:50 tempo osservato: Sereno Sereno 27 54 1014 vento: Nord N 16.7
30 Agosto 2026 21:50 tempo osservato: Sereno Sereno 29 42 1013 vento: Nord N 13
30 Agosto 2026 20:50 tempo osservato: Sereno Sereno 29 42 1013 vento: Nord N 14.8
30 Agosto 2026 19:50 tempo osservato: Sereno Sereno 29 45 1012 vento: Nord N 13
30 Agosto 2026 19:20 tempo osservato: Sereno Sereno 30 45 1012 vento: Nord N/NO 11.1
30 Agosto 2026 18:50 tempo osservato: Sereno Sereno 30 45 1012 vento: Nord N 11.1
30 Agosto 2026 18:20 tempo osservato: Sereno Sereno 30 45 1012 vento: Nord N 16.7
30 Agosto 2026 17:50 tempo osservato: Sereno Sereno 30 42 1012 vento: Nord N 16.7
30 Agosto 2026 16:50 tempo osservato: Sereno Sereno 29 48 1013 vento: Nord N/NE 20.3
30 Agosto 2026 15:50 tempo osservato: Sereno Sereno 28 51 1013 vento: Nord N/NE 20.3
30 Agosto 2026 14:50 tempo osservato: Sereno Sereno 28 51 1013 vento: Nord N/NE 18.5
30 Agosto 2026 13:50 tempo osservato: Sereno Sereno 28 54 1014 vento: Nord N/NE 16.7
30 Agosto 2026 12:50 tempo osservato: Sereno Sereno 27 50 1014 vento: Nord N 20.3
30 Agosto 2026 11:50 tempo osservato: Sereno Sereno 26 54 1015 vento: Nord N/NE 16.7
30 Agosto 2026 10:50 tempo osservato: Sereno Sereno 25 69 1015 vento: Nord N 18.5
30 Agosto 2026 09:50 tempo osservato: Sereno Sereno 25 65 1015 vento: Nord N/NE 14.8
30 Agosto 2026 08:50 tempo osservato: Sereno Sereno 23 73 1015 vento: Nord N 13